Find Starlink 31460

NORAD ID: 59008 Int'l Des: 2024-036 Owner: SPXS Country: US Constellation: starlink operational
LEOCIRCULAR

リアルタイム位置

3D地球を読み込み中...

Starlink 31460について

説明を読み込み中...

次回通過

Passes for default location (London). Set your location on the main map for personalized predictions.

高度履歴

Loading altitude history...

軌道要素

1 59008U 24036L 26126.37797203 .00000002 00000-0 12224-4 0 9999
2 59008 53.1619 170.3133 0001683 78.7020 281.4170 15.30186129124151
Epoch: May 6, 2026 • Age: 11 hours

現在のステータス

高度 475.4 km
速度 7.63 km/s
衛星直下点 4.41°N, 5.76°E
打ち上げ日 Feb 23, 2024
運用期間 2.1 years
タイプ internet

技術仕様

分類 Payload
質量 730.00 kg
乾燥質量 700.00 kg
総質量 730.00 kg
長さ 0.30 m
直径 4.10 m
スパン 29.00 m
形状 Box + pan
製造者 SPXS
バスタイプ Starlink V2M
フェーズステータス In Orbit
所有者/国 SPXS/US

Most Searched